TimeAKDT,TemperatureF,Dew PointF,Humidity,Sea Level PressureIn,VisibilityMPH,Wind Direction,Wind SpeedMPH,Gust SpeedMPH,PrecipitationIn,Events,Conditions,WindDirDegrees,DateUTC
12:53 AM,10.0,6.1,84,30.42,8.0,North,3.5,-,N/A,,Overcast,350,2012-10-20 08:53:00
1:18 AM,10.4,6.8,85,30.38,10.0,Calm,Calm,-,N/A,,Mostly Cloudy,0,2012-10-20 09:18:00
1:53 AM,9.0,6.1,88,30.43,10.0,Calm,Calm,-,N/A,,Mostly Cloudy,0,2012-10-20 09:53:00
2:53 AM,9.0,6.1,88,30.44,10.0,Calm,Calm,-,N/A,,Mostly Cloudy,0,2012-10-20 10:53:00
3:00 AM,8.6,6.8,92,30.40,10.0,Calm,Calm,-,N/A,,Overcast,0,2012-10-20 11:00:00
3:53 AM,12.0,9.0,88,30.44,10.0,Calm,Calm,-,N/A,,Mostly Cloudy,0,2012-10-20 11:53:00
4:25 AM,12.2,8.6,85,30.41,10.0,Calm,Calm,-,N/A,,Overcast,0,2012-10-20 12:25:00
4:53 AM,12.0,9.0,88,30.45,10.0,Calm,Calm,-,N/A,,Overcast,0,2012-10-20 12:53:00
5:53 AM,12.9,10.0,88,30.47,10.0,Calm,Calm,-,N/A,,Overcast,0,2012-10-20 13:53:00
6:30 AM,14.0,10.4,86,30.44,10.0,Calm,Calm,-,N/A,,Overcast,0,2012-10-20 14:30:00
6:53 AM,14.0,10.9,88,30.48,10.0,Calm,Calm,-,N/A,,Overcast,0,2012-10-20 14:53:00
7:53 AM,15.1,12.0,88,30.50,10.0,Calm,Calm,-,N/A,,Overcast,0,2012-10-20 15:53:00
8:53 AM,16.0,12.9,88,30.51,10.0,Calm,Calm,-,0.00,Snow,Light Snow,0,2012-10-20 16:53:00
9:47 AM,15.8,12.2,86,30.48,10.0,Calm,Calm,-,0.00,Snow,Light Snow,0,2012-10-20 17:47:00
9:53 AM,16.0,12.9,88,30.53,10.0,Calm,Calm,-,0.00,Snow,Light Snow,0,2012-10-20 17:53:00
10:53 AM,17.1,15.1,92,30.55,10.0,Calm,Calm,-,0.00,Snow,Light Snow,0,2012-10-20 18:53:00
11:53 AM,19.0,15.1,85,30.55,10.0,Calm,Calm,-,0.00,Snow,Light Snow,0,2012-10-20 19:53:00
12:53 PM,19.4,17.6,93,30.52,10.0,Calm,Calm,-,N/A,,Overcast,0,2012-10-20 20:53:00
1:53 PM,21.0,16.0,81,30.57,10.0,Calm,Calm,-,N/A,,Overcast,0,2012-10-20 21:53:00
2:53 PM,21.9,16.0,78,30.58,10.0,NE,4.6,-,N/A,,Overcast,40,2012-10-20 22:53:00
3:53 PM,21.9,17.1,82,30.57,10.0,Variable,4.6,-,N/A,,Overcast,0,2012-10-20 23:53:00
4:53 PM,21.9,17.1,82,30.58,10.0,NE,5.8,-,N/A,,Overcast,50,2012-10-21 00:53:00
5:53 PM,21.9,17.1,82,30.59,10.0,NE,3.5,-,N/A,,Overcast,40,2012-10-21 01:53:00
6:53 PM,21.9,17.1,82,30.60,10.0,East,3.5,-,N/A,,Overcast,80,2012-10-21 02:53:00
7:53 PM,21.9,17.1,82,30.61,10.0,East,4.6,-,N/A,,Overcast,80,2012-10-21 03:53:00
8:53 PM,21.9,17.1,82,30.61,10.0,East,3.5,-,N/A,,Overcast,80,2012-10-21 04:53:00
9:53 PM,21.0,17.1,85,30.62,10.0,NE,4.6,-,N/A,,Overcast,50,2012-10-21 05:53:00
10:53 PM,21.0,16.0,81,30.63,10.0,ENE,3.5,-,N/A,,Overcast,60,2012-10-21 06:53:00
11:27 PM,21.2,15.8,80,30.59,10.0,ENE,5.8,-,N/A,,Overcast,60,2012-10-21 07:27:00
11:53 PM,21.0,15.1,78,30.62,10.0,East,6.9,-,N/A,,Overcast,80,2012-10-21 07:53:00